Regional Weather Roundup
Issued by NWS Lake Charles, LA

Home | Current Version | Previous Version | Text Only | Print | Product List | Glossary On
Versions: 1 2 3 4 5 6 7 8 9 10 11 12 13 14 15 16 17 18 19 20 21 22 23 24 25 26 27 28 29 30 31 32 33 34 35 36 37 38 39 40 41 42 43 44 45 46 47 48 49 50
413
ASUS44 KLCH 261510
RWRLCH
REGIONAL WEATHER ROUNDUP
NATIONAL WEATHER SERVICE LAKE CHARLES LA
1000 AM CDT SUN MAR 26 2017

Note: "fair" indicates few or no clouds below 12,000 feet with no
significant weather and/or obstructions to visibility.


ACROSS SOUTHEAST TEXAS

CITY           SKY/WX    TMP DP  RH WIND       PRES   REMARKS
BEAUMONT       PTSUNNY   74  69  85 S5        29.97R
BEAUMONT CITY  PTSUNNY  N/A N/A N/A SE5       29.98S
ORANGE         PTSUNNY   72  72  99 S6        30.00R
JASPER         PTSUNNY   67  67 100 CALM      30.00S FOG
$$

ACROSS CENTRAL LOUISIANA

CITY           SKY/WX    TMP DP  RH WIND       PRES   REMARKS
LEESVILLE      CLOUDY    65  56  72 SE7       29.99S
FULLERTON      CLOUDY    67  66  97 CALM      29.98R FOG
ALEXANDRIA INT CLOUDY    67  66  97 S6        29.99R FOG
ESLER FIELD    PTSUNNY   70  67  90 S9        30.00R
DERIDDER       CLOUDY    67  66  96 CALM      30.01S FOG
OAKDALE        CLOUDY    71  67  89 SE6       30.00R
OPELOUSAS      FAIR      71  65  81 MISG      30.01R
$$

ACROSS SOUTHWEST AND SOUTH CENTRAL LOUISIANA

CITY           SKY/WX    TMP DP  RH WIND       PRES   REMARKS
SULPHUR        PTSUNNY   72  72 100 SE5       30.00R
LAKE CHARLES   PTSUNNY   72  69  90 S5        30.00R
CHENNAULT INT  NOT AVBL
CAMERON PHI    PTSUNNY   73  70  88 SE9       29.99R FOG
DEQUINCY       PTSUNNY   70  66  87 S7        30.00R
JENNINGS       PTSUNNY   70  67  90 E5        30.01R
LAFAYETTE      CLOUDY    71  70  96 CALM      30.02R FOG
NEW IBERIA     PTSUNNY   73  68  84 S7        30.03R
ABBEVILLE      CLOUDY    70  70 100 SE5       30.02R
PATTERSON      CLOUDY    73  70  90 S6        30.04R
SALT POINT       N/A     73  70  90 VRB3      30.02R
$$

SELECTED SITES ACROSS THE REGION

CITY           SKY/WX    TMP DP  RH WIND       PRES   REMARKS
HOUSTON BUSH   MOSUNNY   73  68  84 VRB6      29.95S
HOUSTON HOBBY  PTSUNNY   75  69  81 S12       29.95R
GALVESTON      MOSUNNY   76  72  87 S10       29.97R
COLLEGE STAT   CLOUDY    70  66  87 S12       29.91F
CONROE         MOSUNNY   71  66  84 S10       29.95S
HUNTSVILLE     PTSUNNY   70  64  81 S10       29.94S
LUFKIN         MOSUNNY   66  63  90 SE6       29.97S
SHREVEPORT     MOSUNNY   69  53  56 SE7       29.98R
MONROE         SUNNY     63  56  78 CALM      30.01R
NATCHEZ MS     CLOUDY    70  63  78 S6        30.02R
BATON ROUGE    CLOUDY    71  67  87 CALM      30.03R FOG
N.O. INTL ARPT PTSUNNY   74  69  85 S7        30.05R
SLIDELL        CLOUDY    74  69  85 S9        30.05R
$$

MARINE REPORTS

STATION/POSITION TIME  SKY/WX   TEMP    WIND        PRES    VSBY
                                AIR SEA DIR/SP/G
                 (UTC)          (F)     (DEG/KT/KT) (MB)    (MI)
BUOY 30 S HIGH I 1350            72 71  150/  6/  8 1014.1
WVE H/P(F/S)=  3/ 8

SEA RIM ST PARK  1400            71     170/  6/  7 1015.3R
PORT ARTHUR      1448               71  150/  5/  7 1015.5R
SABINE PASS N    1448            72 73  160/  7/  9 1016.7R
TEXAS POINT      NOT AVBL
CALCASIEU PASS   1448            72 72  140/  6/  8   N/A
LK CHARLES BEACH 1448            72 70              1016.1R
MARSH ISLAND     1400            73                   N/A
FRESH WATER LOCK 1448            72 73  140/  8/ 10 1016.1R
AMERADA PASS     1448            73 60  170/  4/  6 1016.6R
$$




USA.gov is the U.S. government's official web portal to all federal, state and local government web resources and services.